User: anonymous   Login
Location: Shades State Park
(39.9310°N, 87.0690°W)
Time: 18:33:51
(UTC-04:00)
Language:

H-2A R/B - Orbit

View from above orbital plane
View from above orbital plane
View from above satellite
View from above satellite

Ground track
Ground track

The orbit data is extracted from the following two-line orbital elements,

1 27601U 02056E   16120.76329329  .00000057  00000-0  35947-4 0  9994
2 27601  98.4206 195.7187 0073422  80.7662  26.9215 14.31707637698650
Epoch (UTC): 29 April 2016 18:19:08
Eccentricity: 0.0073422
inclination: 98.4206°
perigee height: 733 km
apogee height: 838 km
right ascension of ascending node: 195.7187°
argument of perigee: 80.7662°
revolutions per day: 14.31707637
mean anomaly at epoch: 26.9215°
orbit number at epoch: 69865

The dashed part of the orbit path shows where the satellite is in the earth's shadow,  

DLR